Location: Clifton Park
(41.4873°N, 81.8024°W)
Time: 09:35:58
(UTC+00:00)

STARLINK-63 - Pass Details

Date: 21 January 2020
Orbit: 528 x 531 km, 53.0° (Epoch: 17 February)

Event Time Altitude Azimuth Distance (km) Brightness Sun altitude
Exits shadow 09:44:04 15° 93° (E) 1,478 6.5 -34.3°
Drops below altitude 10° 09:45:09 10° 80° (E) 1,768 7.0 -34.1°
Enters shadow 10:48:04 -58° 233° (SW) 11,456 10.3 -22.3°
Maximum altitude 11:20:54 59° 326° (NW) 612 3.6 -16.2°
